User: anonymous   Login
Location: Newark
(40.9833°N, 0.0333°W)
Time: 21:35:01
(UTC+00:00)
Language:

NANOSAT C BR1 - Orbit

View from above orbital plane
View from above orbital plane
View from above satellite
View from above satellite

Ground track
Ground track

The orbit data is extracted from the following two-line orbital elements,

1 40024U 14033Q   19143.98172226  .00000243  00000-0  31205-4 0  9990
2 40024  97.9139  65.9786 0013194 133.1243 227.1080 14.89825512267613
Epoch (UTC): 23 May 2019 23:33:40
Eccentricity: 0.0013194
inclination: 97.9139°
perigee height: 589 km
apogee height: 607 km
right ascension of ascending node: 65.9786°
argument of perigee: 133.1243°
revolutions per day: 14.89825512
mean anomaly at epoch: 227.1080°
orbit number at epoch: 26761

The dashed part of the orbit path shows where the satellite is in the earth's shadow,  

DLR